• In Lithuania
  • List of Countries
  • For 7 days
  • Water Temperature
  • Satellite Maps
  • Weather Map
  • Weather Widgets
  • user-avatar
    Login

    Hourly Weather Pocatello

    Today, 21 February, Wednesday

    Time Temperature Precipitation Wind Pressure Humidity
    00:00 -17°C° 0 mm 4 mps 636 mmHg 81%
    01:00 -16°C° 0 mm 3 mps 636 mmHg 80%
    02:00 -16°C° 0 mm 3 mps 636 mmHg 80%
    03:00 -17°C° 0 mm 3 mps 636 mmHg 80%
    04:00 -17°C° 0 mm 3 mps 636 mmHg 80%
    05:00 -17°C° 0 mm 3 mps 636 mmHg 79%
    06:00 -17°C° 0 mm 3 mps 636 mmHg 79%
    07:00 -17°C° 0 mm 3 mps 636 mmHg 79%
    08:00 -16°C° 0 mm 2 mps 636 mmHg 78%
    09:00 -15°C° 0 mm 3 mps 636 mmHg 75%
    10:00 -13°C° 0 mm 3 mps 636 mmHg 72%
    11:00 -10°C° 0 mm 3 mps 636 mmHg 68%
    12:00 -9°C° 0 mm 3 mps 636 mmHg 66%
    13:00 -8°C° 0 mm 3 mps 636 mmHg 64%
    14:00 -7°C° 0 mm 3 mps 636 mmHg 62%
    15:00 -8°C° 0 mm 3 mps 635 mmHg 64%
    16:00 -8°C° 0 mm 3 mps 635 mmHg 66%
    17:00 -8°C° 0 mm 3 mps 635 mmHg 69%
    18:00 -9°C° 0 mm 3 mps 635 mmHg 71%
    19:00 -12°C° 0 mm 3 mps 634 mmHg 73%
    20:00 -13°C° 0 mm 3 mps 634 mmHg 75%
    21:00 -13°C° 0 mm 3 mps 634 mmHg 74%
    22:00 -14°C° 0 mm 3 mps 634 mmHg 74%
    23:00 -14°C° 0 mm 3 mps 634 mmHg 73%

    Tomorrow, 22 February, Thursday

    Time Temperature Precipitation Wind Pressure Humidity
    00:00 -15°C° 0 mm 3 mps 634 mmHg 73%
    01:00 -15°C° 0 mm 3 mps 634 mmHg 73%
    02:00 -15°C° 0 mm 3 mps 634 mmHg 72%
    03:00 -15°C° 0 mm 3 mps 634 mmHg 72%
    04:00 -16°C° 0 mm 3 mps 633 mmHg 72%
    05:00 -16°C° 0 mm 3 mps 633 mmHg 72%
    06:00 -16°C° 0 mm 3 mps 633 mmHg 72%
    07:00 -15°C° 0 mm 3 mps 633 mmHg 72%
    08:00 -15°C° 0 mm 3 mps 633 mmHg 72%
    09:00 -13°C° 0 mm 3 mps 633 mmHg 70%
    10:00 -12°C° 0 mm 3 mps 633 mmHg 68%
    11:00 -9°C° 0 mm 3 mps 633 mmHg 67%
    12:00 -8°C° 0.1 mm 3 mps 632 mmHg 66%
    13:00 -7°C° 0.1 mm 3 mps 632 mmHg 66%
    14:00 -6°C° 0.1 mm 3 mps 632 mmHg 66%
    15:00 -6°C° 0 mm 3 mps 631 mmHg 68%
    16:00 -6°C° 0 mm 3 mps 631 mmHg 71%
    17:00 -5°C° 0 mm 2 mps 631 mmHg 73%
    18:00 -6°C° 0 mm 2 mps 631 mmHg 76%
    19:00 -7°C° 0 mm 2 mps 631 mmHg 78%
    20:00 -8°C° 0 mm 2 mps 631 mmHg 81%
    21:00 -8°C° 0 mm 2 mps 632 mmHg 82%
    22:00 -8°C° 0 mm 2 mps 632 mmHg 82%
    23:00 -9°C° 0 mm 2 mps 632 mmHg 83%

    Day after tomorrow, 23 February, Friday

    Time Temperature Precipitation Wind Pressure Humidity
    00:00 -8°C° 0 mm 1 mps 632 mmHg 83%
    01:00 -8°C° 0 mm 1 mps 632 mmHg 83%
    02:00 -8°C° 0 mm 1 mps 632 mmHg 84%
    03:00 -8°C° 0.1 mm 1 mps 632 mmHg 84%
    04:00 -9°C° 0.1 mm 1 mps 632 mmHg 84%
    05:00 -10°C° 0.1 mm 2 mps 632 mmHg 84%
    06:00 -10°C° 0.1 mm 2 mps 633 mmHg 84%
    07:00 -10°C° 0.1 mm 2 mps 633 mmHg 84%
    08:00 -10°C° 0.1 mm 2 mps 633 mmHg 84%
    09:00 -9°C° 0.1 mm 2 mps 633 mmHg 81%
    10:00 -9°C° 0.1 mm 3 mps 634 mmHg 79%
    11:00 -9°C° 0.1 mm 4 mps 634 mmHg 77%
    12:00 -9°C° 0 mm 4 mps 633 mmHg 76%
    13:00 -8°C° 0 mm 5 mps 633 mmHg 74%
    14:00 -8°C° 0 mm 5 mps 633 mmHg 73%
    15:00 -9°C° 0 mm 6 mps 633 mmHg 72%
    16:00 -10°C° 0 mm 6 mps 633 mmHg 71%
    17:00 -10°C° 0 mm 6 mps 632 mmHg 70%
    18:00 -11°C° 0 mm 5 mps 633 mmHg 72%
    19:00 -12°C° 0 mm 5 mps 633 mmHg 74%
    20:00 -14°C° 0 mm 5 mps 633 mmHg 75%
    21:00 -14°C° 0 mm 5 mps 633 mmHg 76%
    22:00 -14°C° 0 mm 5 mps 633 mmHg 77%
    23:00 -14°C° 0 mm 5 mps 634 mmHg 78%

    24 February, Saturday

    Time Temperature Precipitation Wind Pressure Humidity
    00:00 -14°C° 0.1 mm 5 mps 634 mmHg 79%
    01:00 -13°C° 0.1 mm 5 mps 634 mmHg 80%
    02:00 -13°C° 0.1 mm 5 mps 634 mmHg 82%
    03:00 -12°C° 0.1 mm 5 mps 634 mmHg 83%
    04:00 -12°C° 0.1 mm 5 mps 634 mmHg 85%
    05:00 -12°C° 0.1 mm 5 mps 633 mmHg 87%
    06:00 -12°C° 0.2 mm 5 mps 633 mmHg 88%
    07:00 -12°C° 0.2 mm 5 mps 633 mmHg 88%
    08:00 -11°C° 0.2 mm 5 mps 633 mmHg 89%
    09:00 -10°C° 0.1 mm 5 mps 633 mmHg 86%
    10:00 -10°C° 0.1 mm 6 mps 633 mmHg 84%
    11:00 -9°C° 0.1 mm 6 mps 632 mmHg 81%
    12:00 -8°C° 0.1 mm 6 mps 632 mmHg 80%
    13:00 -8°C° 0.1 mm 7 mps 631 mmHg 78%
    14:00 -8°C° 0.1 mm 7 mps 630 mmHg 77%
    15:00 -8°C° 0.4 mm 7 mps 630 mmHg 81%
    16:00 -8°C° 0.4 mm 7 mps 629 mmHg 84%
    17:00 -8°C° 0.4 mm 7 mps 628 mmHg 88%
    18:00 -9°C° 0.3 mm 6 mps 628 mmHg 89%
    19:00 -9°C° 0.3 mm 6 mps 628 mmHg 90%
    20:00 -8°C° 0.3 mm 5 mps 628 mmHg 91%
    21:00 -8°C° 0.1 mm 5 mps 628 mmHg 91%
    22:00 -10°C° 0.1 mm 5 mps 628 mmHg 91%
    23:00 -10°C° 0.1 mm 5 mps 628 mmHg 90%

    25 February, Sunday

    Time Temperature Precipitation Wind Pressure Humidity
    00:00 -11°C° 0 mm 5 mps 629 mmHg 90%
    01:00 -12°C° 0 mm 5 mps 629 mmHg 90%
    02:00 -12°C° 0 mm 5 mps 629 mmHg 90%
    03:00 -11°C° 0.1 mm 4 mps 629 mmHg 90%
    04:00 -11°C° 0.1 mm 4 mps 630 mmHg 90%
    05:00 -10°C° 0.1 mm 3 mps 631 mmHg 90%
    06:00 -10°C° 0.1 mm 3 mps 632 mmHg 90%
    07:00 -12°C° 0.1 mm 3 mps 632 mmHg 91%
    08:00 -12°C° 0.1 mm 3 mps 633 mmHg 91%
    09:00 -11°C° 0 mm 4 mps 634 mmHg 87%
    10:00 -10°C° 0 mm 4 mps 634 mmHg 83%
    11:00 -10°C° 0 mm 5 mps 634 mmHg 79%
    12:00 -10°C° 0 mm 5 mps 634 mmHg 77%
    13:00 -9°C° 0 mm 6 mps 634 mmHg 75%
    14:00 -8°C° 0 mm 7 mps 634 mmHg 73%
    15:00 -8°C° 0.1 mm 7 mps 634 mmHg 75%
    16:00 -8°C° 0.1 mm 6 mps 635 mmHg 77%
    17:00 -8°C° 0.1 mm 6 mps 635 mmHg 79%
    18:00 -9°C° 0.1 mm 6 mps 635 mmHg 81%
    19:00 -9°C° 0.1 mm 6 mps 635 mmHg 84%
    20:00 -10°C° 0.1 mm 5 mps 636 mmHg 87%
    21:00 -10°C° 0.1 mm 5 mps 635 mmHg 86%
    22:00 -10°C° 0.1 mm 5 mps 635 mmHg 85%
    23:00 -10°C° 0.1 mm 5 mps 635 mmHg 85%

    26 February, Monday

    Time Temperature Precipitation Wind Pressure Humidity
    00:00 -10°C° 0.1 mm 6 mps 635 mmHg 84%
    01:00 -10°C° 0.1 mm 6 mps 634 mmHg 84%
    02:00 -11°C° 0.1 mm 6 mps 634 mmHg 84%
    03:00 -11°C° 0.3 mm 7 mps 633 mmHg 85%
    04:00 -11°C° 0.3 mm 7 mps 633 mmHg 86%
    05:00 -11°C° 0.3 mm 8 mps 632 mmHg 87%
    06:00 -11°C° 0.5 mm 8 mps 632 mmHg 87%
    07:00 -11°C° 0.5 mm 8 mps 632 mmHg 88%
    08:00 -11°C° 0.5 mm 8 mps 631 mmHg 88%
    09:00 -10°C° 0.3 mm 8 mps 631 mmHg 87%
    10:00 -8°C° 0.3 mm 8 mps 631 mmHg 86%
    11:00 -8°C° 0.3 mm 8 mps 631 mmHg 84%
    12:00 -7°C° 0.2 mm 7 mps 630 mmHg 83%
    13:00 -7°C° 0.2 mm 7 mps 630 mmHg 82%
    14:00 -6°C° 0.2 mm 7 mps 630 mmHg 81%
    15:00 -5°C° 0.2 mm 6 mps 630 mmHg 83%
    16:00 -6°C° 0.2 mm 5 mps 629 mmHg 85%
    17:00 -5°C° 0.2 mm 4 mps 629 mmHg 87%
    18:00 -6°C° 0.2 mm 3 mps 629 mmHg 89%
    19:00 -6°C° 0.2 mm 3 mps 630 mmHg 90%
    20:00 -7°C° 0.2 mm 3 mps 630 mmHg 92%
    21:00 -7°C° 0.1 mm 2 mps 630 mmHg 93%
    22:00 -7°C° 0.1 mm 2 mps 630 mmHg 93%
    23:00 -8°C° 0.1 mm 2 mps 630 mmHg 94%
    Show more